• In Hungary
  • List of Countries
  • For 7 days
  • Water Temperature
  • Satellite Maps
  • Weather Map
  • News
  • Weather Widgets
  • user-avatar
    Login

    Hourly Weather Podgornoe

    Today, 13 November, Tuesday

    Time Temperature Precipitation Wind Pressure Humidity
    00:00 -10°C° 0 mm 2 mps 756 mmHg 59%
    01:00 -10°C° 0 mm 2 mps 755 mmHg 58%
    02:00 -10°C° 0 mm 2 mps 755 mmHg 58%
    03:00 -10°C° 0 mm 2 mps 755 mmHg 58%
    04:00 -13°C° 0 mm 3 mps 755 mmHg 59%
    05:00 -12°C° 0 mm 2 mps 755 mmHg 59%
    06:00 -12°C° 0 mm 2 mps 755 mmHg 59%
    07:00 -12°C° 0 mm 2 mps 755 mmHg 60%
    08:00 -10°C° 0 mm 2 mps 754 mmHg 57%
    09:00 -9°C° 0 mm 2 mps 754 mmHg 53%
    10:00 -9°C° 0 mm 3 mps 754 mmHg 50%
    11:00 -8°C° 0 mm 3 mps 754 mmHg 48%
    12:00 -7°C° 0 mm 3 mps 754 mmHg 47%
    13:00 -6°C° 0 mm 3 mps 754 mmHg 46%
    14:00 -7°C° 0 mm 3 mps 754 mmHg 49%
    15:00 -6°C° 0 mm 2 mps 754 mmHg 53%
    16:00 -7°C° 0 mm 2 mps 753 mmHg 57%
    17:00 -8°C° 0 mm 2 mps 753 mmHg 58%
    18:00 -8°C° 0 mm 2 mps 753 mmHg 58%
    19:00 -8°C° 0 mm 2 mps 753 mmHg 59%
    20:00 -8°C° 0 mm 2 mps 753 mmHg 58%
    21:00 -9°C° 0 mm 2 mps 752 mmHg 57%
    22:00 -9°C° 0 mm 2 mps 752 mmHg 56%
    23:00 -8°C° 0 mm 1 mps 752 mmHg 55%

    Tomorrow, 14 November, Wednesday

    Time Temperature Precipitation Wind Pressure Humidity
    00:00 -8°C° 0 mm 1 mps 752 mmHg 54%
    01:00 -8°C° 0 mm 1 mps 751 mmHg 53%
    02:00 -8°C° 0 mm 1 mps 751 mmHg 53%
    03:00 -8°C° 0 mm 1 mps 751 mmHg 52%
    04:00 -8°C° 0 mm 1 mps 751 mmHg 52%
    05:00 -8°C° 0 mm 1 mps 751 mmHg 51%
    06:00 -8°C° 0 mm 1 mps 751 mmHg 51%
    07:00 -8°C° 0 mm 1 mps 750 mmHg 50%
    08:00 -7°C° 0 mm 1 mps 750 mmHg 48%
    09:00 -6°C° 0 mm 1 mps 750 mmHg 46%
    10:00 -4°C° 0 mm 1 mps 750 mmHg 43%
    11:00 -3°C° 0 mm 1 mps 750 mmHg 41%
    12:00 -3°C° 0 mm 1 mps 750 mmHg 39%
    13:00 -2°C° 0 mm 1 mps 750 mmHg 37%
    14:00 -2°C° 0 mm 1 mps 749 mmHg 41%
    15:00 -3°C° 0 mm 1 mps 749 mmHg 45%
    16:00 -4°C° 0 mm 1 mps 749 mmHg 49%
    17:00 -4°C° 0 mm 1 mps 749 mmHg 50%
    18:00 -6°C° 0 mm 1 mps 749 mmHg 51%
    19:00 -6°C° 0 mm 0 mps 749 mmHg 51%
    20:00 -6°C° 0 mm 0 mps 749 mmHg 51%
    21:00 -7°C° 0 mm 0 mps 749 mmHg 51%
    22:00 -7°C° 0 mm 0 mps 749 mmHg 50%
    23:00 -7°C° 0 mm 0 mps 749 mmHg 50%

    Day after tomorrow, 15 November, Thursday

    Time Temperature Precipitation Wind Pressure Humidity
    00:00 -7°C° 0 mm 0 mps 749 mmHg 50%
    01:00 -7°C° 0 mm 0 mps 749 mmHg 49%
    02:00 -7°C° 0 mm 0 mps 749 mmHg 49%
    03:00 -7°C° 0 mm 0 mps 749 mmHg 49%
    04:00 -7°C° 0 mm 0 mps 750 mmHg 48%
    05:00 -7°C° 0 mm 0 mps 750 mmHg 48%
    06:00 -7°C° 0 mm 0 mps 750 mmHg 48%
    07:00 -7°C° 0 mm 0 mps 750 mmHg 48%
    08:00 -6°C° 0 mm 0 mps 750 mmHg 47%
    09:00 -6°C° 0 mm 0 mps 750 mmHg 45%
    10:00 -4°C° 0 mm 1 mps 750 mmHg 44%
    11:00 -3°C° 0 mm 1 mps 750 mmHg 42%
    12:00 -2°C° 0 mm 1 mps 750 mmHg 39%
    13:00 -1°C° 0 mm 1 mps 750 mmHg 37%
    14:00 -2°C° 0 mm 1 mps 750 mmHg 40%
    15:00 -2°C° 0 mm 1 mps 750 mmHg 44%
    16:00 -3°C° 0 mm 1 mps 750 mmHg 47%
    17:00 -4°C° 0 mm 1 mps 750 mmHg 48%
    18:00 -4°C° 0 mm 1 mps 750 mmHg 48%
    19:00 -4°C° 0 mm 1 mps 750 mmHg 48%
    20:00 -4°C° 0 mm 1 mps 751 mmHg 48%
    21:00 -6°C° 0 mm 1 mps 751 mmHg 48%
    22:00 -6°C° 0 mm 1 mps 751 mmHg 48%
    23:00 -6°C° 0 mm 1 mps 751 mmHg 48%

    16 November, Friday

    Time Temperature Precipitation Wind Pressure Humidity
    00:00 -6°C° 0 mm 1 mps 751 mmHg 48%
    01:00 -6°C° 0 mm 1 mps 751 mmHg 48%
    02:00 -6°C° 0 mm 1 mps 751 mmHg 48%
    03:00 -6°C° 0 mm 1 mps 751 mmHg 48%
    04:00 -6°C° 0 mm 1 mps 751 mmHg 48%
    05:00 -6°C° 0 mm 1 mps 751 mmHg 48%
    06:00 -6°C° 0 mm 1 mps 751 mmHg 47%
    07:00 -7°C° 0 mm 1 mps 751 mmHg 47%
    08:00 -6°C° 0 mm 1 mps 751 mmHg 46%
    09:00 -4°C° 0 mm 1 mps 751 mmHg 45%
    10:00 -3°C° 0 mm 1 mps 751 mmHg 44%
    11:00 -2°C° 0 mm 1 mps 751 mmHg 42%
    12:00 -1°C° 0 mm 1 mps 751 mmHg 40%
    13:00 0°C° 0 mm 1 mps 751 mmHg 38%
    14:00 -1°C° 0 mm 1 mps 751 mmHg 42%
    15:00 -2°C° 0 mm 1 mps 751 mmHg 46%
    16:00 -3°C° 0 mm 1 mps 750 mmHg 49%
    17:00 -3°C° 0 mm 1 mps 750 mmHg 50%
    18:00 -4°C° 0 mm 1 mps 750 mmHg 51%
    19:00 -4°C° 0 mm 1 mps 750 mmHg 51%
    20:00 -4°C° 0 mm 1 mps 750 mmHg 51%
    21:00 -6°C° 0 mm 1 mps 749 mmHg 51%
    22:00 -6°C° 0 mm 1 mps 749 mmHg 51%
    23:00 -6°C° 0 mm 1 mps 749 mmHg 51%

    17 November, Saturday

    Time Temperature Precipitation Wind Pressure Humidity
    00:00 -6°C° 0 mm 1 mps 748 mmHg 51%
    01:00 -6°C° 0 mm 1 mps 748 mmHg 51%
    02:00 -6°C° 0 mm 1 mps 748 mmHg 51%
    03:00 -7°C° 0 mm 1 mps 747 mmHg 51%
    04:00 -7°C° 0 mm 1 mps 747 mmHg 51%
    05:00 -7°C° 0 mm 1 mps 747 mmHg 51%
    06:00 -7°C° 0 mm 1 mps 746 mmHg 51%
    07:00 -7°C° 0 mm 1 mps 746 mmHg 51%
    08:00 -6°C° 0 mm 1 mps 745 mmHg 49%
    09:00 -6°C° 0 mm 1 mps 745 mmHg 46%
    10:00 -4°C° 0 mm 1 mps 744 mmHg 44%
    11:00 -5°C° 0 mm 2 mps 744 mmHg 41%
    12:00 -4°C° 0 mm 2 mps 744 mmHg 39%
    13:00 -4°C° 0 mm 2 mps 743 mmHg 36%
    14:00 -4°C° 0 mm 2 mps 743 mmHg 39%
    15:00 -4°C° 0 mm 2 mps 742 mmHg 42%
    16:00 -5°C° 0 mm 2 mps 742 mmHg 45%
    17:00 -5°C° 0 mm 2 mps 741 mmHg 46%
    18:00 -5°C° 0 mm 2 mps 741 mmHg 48%
    19:00 -5°C° 0 mm 2 mps 741 mmHg 49%
    20:00 -3°C° 0 mm 1 mps 740 mmHg 51%
    21:00 -3°C° 0 mm 1 mps 740 mmHg 52%
    22:00 -3°C° 0 mm 1 mps 740 mmHg 54%
    23:00 -4°C° 0 mm 1 mps 740 mmHg 55%

    18 November, Sunday

    Time Temperature Precipitation Wind Pressure Humidity
    00:00 -4°C° 0 mm 1 mps 739 mmHg 56%
    01:00 -4°C° 0 mm 1 mps 739 mmHg 58%
    02:00 -4°C° 0 mm 1 mps 739 mmHg 59%
    03:00 -4°C° 0 mm 1 mps 739 mmHg 60%
    04:00 -4°C° 0 mm 1 mps 739 mmHg 61%
    05:00 -4°C° 0 mm 1 mps 739 mmHg 62%
    06:00 -4°C° 0 mm 1 mps 739 mmHg 63%
    07:00 -4°C° 0 mm 1 mps 739 mmHg 64%
    08:00 -4°C° 0 mm 1 mps 739 mmHg 61%
    09:00 -3°C° 0 mm 1 mps 739 mmHg 59%
    10:00 -2°C° 0 mm 1 mps 739 mmHg 57%
    11:00 -2°C° 0 mm 1 mps 739 mmHg 54%
    12:00 -1°C° 0 mm 1 mps 739 mmHg 51%
    13:00 0°C° 0 mm 1 mps 739 mmHg 49%
    14:00 -1°C° 0 mm 1 mps 739 mmHg 51%
    15:00 -2°C° 0 mm 1 mps 739 mmHg 54%
    16:00 -2°C° 0 mm 1 mps 739 mmHg 57%
    17:00 -4°C° 0 mm 0 mps 740 mmHg 57%
    18:00 -4°C° 0 mm 0 mps 740 mmHg 57%
    19:00 -4°C° 0 mm 0 mps 740 mmHg 57%
    20:00 -5°C° 0 mm 0 mps 740 mmHg 58%
    21:00 -5°C° 0 mm 0 mps 740 mmHg 58%
    22:00 -5°C° 0 mm 0 mps 740 mmHg 58%
    23:00 -5°C° 0 mm 0 mps 741 mmHg 59%
    Show more